Location: Bli��� Lhota
(48.7570°N, 14.0120°E)
Time: 09:34:01
(UTC+00:00)

Cosmos 2263 Rocket - Pass Details

Date: 18 September 2020
Orbit: 822 x 850 km, 71.0° (Epoch: 27 October)

Event Time Altitude Azimuth Distance (km) Brightness Sun altitude
Rises 19:32:50 0° 246° (WSW) 3,354 5.8 -23.2°
Reaches altitude 10° 19:35:39 10° 259° (WSW) 2,427 5.2 -23.6°
Maximum altitude 19:40:16 26° 315° (NW) 1,576 4.3 -24.2°
Drops below altitude 10° 19:44:56 10° 12° (NNE) 2,450 4.9 -24.8°
Sets 19:47:48 0° 25° (NNE) 3,392 5.5 -25.2°
